Weather reports worldwide

Advertisment
Palermo/Punta Raisi, Italy (16405): temperature & dewpoint: 15.05.2019 17:00:00 - 21.05.2019 17:00:00 (CEST)Palermo/Punta Raisi, Italy (16405): wind speed: 15.05.2019 17:00:00 - 21.05.2019 17:00:00 (CEST)Palermo/Punta Raisi, Italy (16405): wind direction: 15.05.2019 17:00:00 - 21.05.2019 17:00:00 (CEST)Palermo/Punta Raisi, Italy (16405): reduced air pressure: 15.05.2019 17:00:00 - 21.05.2019 17:00:00 (CEST)Palermo/Punta Raisi, Italy (16405): visibility: 15.05.2019 17:00:00 - 21.05.2019 17:00:00 (CEST)Palermo/Punta Raisi, Italy (16405): precipitation: 15.05.2019 17:00:00 - 21.05.2019 17:00:00 (CEST)
Date & Time tt [°C] td [°C] ff [km/h] ff [kn] dd ppp [hPa] vv [km] rr [mm]
21.05.2019 17:00:00 19,3 13,3 5 3 N 1017,3 10 0,0
21.05.2019 16:00:00 19,0 13,0 16 9 NW - 10 -
21.05.2019 15:00:00 19,0 12,0 15 8 WNW - 10 -
21.05.2019 14:00:00 18,7 12,2 16 9 WNW 1017,7 10 -
21.05.2019 13:00:00 19,0 11,0 15 8 WNW - 10 -
21.05.2019 12:00:00 18,0 13,0 15 8 WNW - 10 -
21.05.2019 11:00:00 17,9 11,7 16 9 SW 1017,5 10 0,0
21.05.2019 10:00:00 19,0 9,0 18 10 SW - 10 -
21.05.2019 09:00:00 18,0 10,0 22 12 SW - 10 -
21.05.2019 08:00:00 16,3 9,8 18 10 SW 1016,4 10 -
21.05.2019 07:00:00 16,0 9,0 18 10 SSW - 10 -
21.05.2019 06:00:00 14,0 9,0 15 8 SSW - 10 -
21.05.2019 05:00:00 13,4 9,1 15 8 SSW 1015,3 10 0,0
21.05.2019 04:00:00 14,0 11,0 9 5 SSW - 10 -
21.05.2019 03:00:00 14,0 9,0 9 5 S - 10 -
21.05.2019 02:00:00 13,9 9,6 11 6 SSW 1015,9 10 -
21.05.2019 01:00:00 16,0 12,0 11 6 SW - 10 -
21.05.2019 00:00:00 16,0 11,0 15 8 SW - 10 -
20.05.2019 23:00:00 15,2 11,1 13 7 SSW 1016,2 10 0,0
20.05.2019 22:00:00 16,0 11,0 15 8 SW - 10 -
20.05.2019 21:00:00 17,0 11,0 16 9 WSW - 10 -
20.05.2019 20:00:00 16,4 11,9 35 19 W 1014,8 10 -
20.05.2019 19:00:00 17,0 12,0 34 18 W - 10 -
20.05.2019 18:00:00 17,0 13,0 29 16 W - 10 -
20.05.2019 17:00:00 17,0 12,8 31 17 W 1013,7 10 0,0
20.05.2019 16:00:00 18,0 13,0 29 16 W - 10 -
20.05.2019 15:00:00 17,0 13,0 31 17 W - 10 -
20.05.2019 14:00:00 17,5 12,3 37 20 W 1013,4 10 -
20.05.2019 13:00:00 18,0 13,0 24 13 WNW - 10 -
20.05.2019 12:00:00 18,0 13,0 22 12 W - 10 -
20.05.2019 11:00:00 18,2 11,2 21 11 WSW 1013,1 10 0,0
20.05.2019 10:00:00 19,0 10,0 22 12 SW - 10 -
20.05.2019 09:00:00 18,0 11,0 21 11 SSW - 10 -
20.05.2019 08:00:00 16,3 10,8 26 14 SSW 1012,2 10 -
20.05.2019 07:00:00 15,0 10,0 16 9 S - 10 -
20.05.2019 06:00:00 16,0 11,0 24 13 S - 10 -
20.05.2019 05:00:00 15,1 10,1 9 5 S 1011,0 10 0,0
20.05.2019 04:00:00 16,0 9,0 13 7 S - 10 -
20.05.2019 03:00:00 16,0 9,0 13 7 S - 10 -
20.05.2019 02:00:00 16,3 10,8 24 13 SW 1011,6 10 -
20.05.2019 01:00:00 16,0 11,0 5 3 S - 10 -
20.05.2019 00:00:00 17,0 12,0 16 9 W - 10 -
19.05.2019 23:00:00 15,8 11,1 9 5 SW 1011,3 10 0,0
19.05.2019 22:00:00 16,0 11,0 11 6 NW - 10 -
19.05.2019 21:00:00 16,0 11,0 8 4 WNW - 10 -
19.05.2019 20:00:00 16,2 11,3 13 7 WNW 1010,5 10 -
19.05.2019 19:00:00 16,0 12,0 15 8 W - 10 -
19.05.2019 18:00:00 17,0 12,0 15 8 W - 10 -
19.05.2019 17:00:00 16,5 12,1 26 14 W 1010,3 10 0,0
19.05.2019 16:00:00 17,0 13,0 18 10 WNW - 10 -
19.05.2019 15:00:00 17,0 14,0 26 14 WNW - 10 -
19.05.2019 14:00:00 17,0 14,0 18 10 W 1009,8 10 -
19.05.2019 13:00:00 16,0 13,0 26 14 W - 10 -
19.05.2019 12:00:00 17,0 14,0 29 16 W - 10 -
19.05.2019 11:00:00 16,5 13,9 34 18 W 1008,6 10 0,0
19.05.2019 10:00:00 18,0 12,0 22 12 SW - 10 -
19.05.2019 09:00:00 17,0 11,0 24 13 SW - 10 -
19.05.2019 08:00:00 16,7 11,4 22 12 SSW 1007,3 10 -
19.05.2019 07:00:00 15,0 11,0 18 10 SSW - 10 -
19.05.2019 06:00:00 15,0 12,0 13 7 SW - 10 -
19.05.2019 05:00:00 15,7 13,1 22 12 WSW 1006,6 10 0,0
19.05.2019 04:00:00 15,0 12,0 11 6 SSW - 10 -
19.05.2019 03:00:00 15,0 12,0 11 6 S - 10 -
19.05.2019 02:00:00 15,8 12,6 9 5 NNW 1007,4 10 -
19.05.2019 01:00:00 16,0 13,0 15 8 WNW - 10 -
19.05.2019 00:00:00 16,0 13,0 21 11 WNW - 10 -
18.05.2019 23:00:00 16,2 13,0 26 14 WNW 1009,0 10 0,0
18.05.2019 22:00:00 16,0 14,0 24 13 WNW - 10 -
18.05.2019 21:00:00 17,0 14,0 26 14 WNW - 10 -
18.05.2019 20:00:00 16,7 13,8 15 8 WNW 1007,9 10 -
18.05.2019 19:00:00 17,0 14,0 21 11 WNW - 10 -
18.05.2019 18:00:00 18,0 14,0 18 10 NW - 10 -
18.05.2019 17:00:00 18,4 13,1 22 12 WNW 1007,1 10 0,0
18.05.2019 16:00:00 18,0 13,0 21 11 WNW - 10 -
18.05.2019 15:00:00 19,0 12,0 22 12 WNW - 10 -
18.05.2019 14:00:00 19,8 12,9 13 7 WNW 1007,4 10 -
18.05.2019 13:00:00 20,0 11,0 21 11 W - 10 -
18.05.2019 12:00:00 19,0 12,0 21 11 WSW - 10 -
18.05.2019 11:00:00 20,7 8,3 21 11 SW 1007,6 10 0,0
18.05.2019 10:00:00 20,0 6,0 18 10 SW - 10 -
18.05.2019 09:00:00 20,0 6,0 18 10 SSW - 10 -
18.05.2019 08:00:00 19,3 6,1 11 6 SSW 1006,8 10 -
18.05.2019 07:00:00 18,0 6,0 11 6 SSW - 10 -
18.05.2019 06:00:00 17,0 9,0 18 10 SSW - 10 -
18.05.2019 05:00:00 18,7 5,7 24 13 SSW 1006,5 10 0,0
18.05.2019 04:00:00 20,0 2,0 24 13 S - 10 -
18.05.2019 03:00:00 21,0 3,0 29 16 SSW - 10 -
18.05.2019 02:00:00 19,1 5,8 26 14 SSW 1006,9 10 -
18.05.2019 01:00:00 18,0 8,0 26 14 SW - 10 -
18.05.2019 00:00:00 19,0 6,0 21 11 SSW - 10 -
17.05.2019 23:00:00 17,6 8,8 18 10 SW 1007,4 10 0,0
17.05.2019 22:00:00 18,0 10,0 22 12 SW - 10 -
17.05.2019 21:00:00 17,0 15,0 8 4 N - 10 -
17.05.2019 20:00:00 17,3 13,9 15 8 ENE 1006,9 10 -
17.05.2019 19:00:00 19,0 14,0 15 8 ENE - 10 -
17.05.2019 18:00:00 19,0 13,0 18 10 ENE - 10 -
17.05.2019 17:00:00 19,6 13,2 21 11 NE 1007,4 10 0,0
17.05.2019 16:00:00 19,0 13,0 24 13 NE - 10 -
17.05.2019 15:00:00 19,0 13,0 28 15 NE - 10 -
17.05.2019 14:00:00 19,2 11,5 24 13 ENE 1008,8 10 -
17.05.2019 13:00:00 19,0 11,0 24 13 ENE - 10 -
17.05.2019 12:00:00 18,0 12,0 21 11 NE - 10 -
17.05.2019 11:00:00 16,9 11,9 18 10 NE 1010,2 10 0,0
17.05.2019 10:00:00 17,0 11,0 11 6 NNE - 10 -
17.05.2019 09:00:00 16,0 11,0 5 3 WSW - 10 -
17.05.2019 08:00:00 15,5 9,9 8 4 S 1010,7 10 -
17.05.2019 07:00:00 13,0 8,0 8 4 SSE - 10 -
17.05.2019 06:00:00 12,0 9,0 9 5 SSW - 10 -
17.05.2019 05:00:00 13,0 10,2 8 4 S 1010,5 10 0,0
17.05.2019 04:00:00 14,0 11,0 13 7 E - 10 -
17.05.2019 03:00:00 14,0 11,0 13 7 ENE - 10 -
17.05.2019 02:00:00 13,8 10,8 9 5 ENE 1010,8 10 -
17.05.2019 01:00:00 15,0 11,0 9 5 ENE - 10 -
17.05.2019 00:00:00 14,0 11,0 9 5 ENE - 10 -
16.05.2019 23:00:00 14,6 11,3 13 7 ENE 1012,2 10 0,0
16.05.2019 22:00:00 15,0 11,0 16 9 ENE - 10 -
16.05.2019 21:00:00 16,0 13,0 11 6 NNE - 10 -
16.05.2019 20:00:00 16,2 12,3 16 9 NNE 1011,0 10 -
16.05.2019 19:00:00 16,0 11,0 13 7 NE - 10 -
16.05.2019 18:00:00 16,0 11,0 13 7 NE - 10 -
16.05.2019 17:00:00 16,2 10,3 9 5 N 1009,6 10 0,0
16.05.2019 16:00:00 16,0 11,0 13 7 NW - 10 -
16.05.2019 15:00:00 16,0 10,0 11 6 NNW - 10 -
16.05.2019 14:00:00 15,7 9,7 9 5 NNW 1008,9 10 -
16.05.2019 13:00:00 15,0 8,0 13 7 NNW - 10 -
16.05.2019 12:00:00 14,0 10,0 11 6 SSE - 10 -
16.05.2019 11:00:00 13,0 8,9 11 6 SW 1008,0 10 0,0
16.05.2019 10:00:00 12,0 9,0 5 3 S - 10 -
16.05.2019 09:00:00 12,0 10,0 8 4 - - 7 -
16.05.2019 08:00:00 11,8 9,4 13 7 SSE 1006,9 10 -
16.05.2019 07:00:00 11,0 9,0 13 7 S - 10 -
16.05.2019 06:00:00 12,0 9,0 28 15 W - 10 -
16.05.2019 05:00:00 14,2 11,0 28 15 WNW 1005,7 10 0,0
16.05.2019 04:00:00 15,0 12,0 34 18 W - 10 -
16.05.2019 03:00:00 16,0 11,0 34 18 SSW - 10 -
16.05.2019 02:00:00 16,1 10,1 31 17 S 1004,8 10 -
16.05.2019 01:00:00 16,0 10,0 26 14 SSW - 10 -
16.05.2019 00:00:00 16,0 10,0 15 8 SSW - 10 -
15.05.2019 23:00:00 15,8 9,3 21 11 SSW 1008,6 10 0,0
15.05.2019 22:00:00 16,0 10,0 15 8 S - 10 -
15.05.2019 21:00:00 16,0 10,0 15 8 SSW - 10 -
15.05.2019 20:00:00 16,9 11,3 22 12 SW 1009,4 10 -
15.05.2019 19:00:00 17,0 12,0 34 18 WSW - 10 -
15.05.2019 18:00:00 18,0 13,0 28 15 WSW - 10 -
15.05.2019 17:00:00 17,3 12,5 15 8 W 1009,5 10 0,0

tt = temperature
td = dewpoint
ff = wind speed
dd = wind direction
ppp = reduced air pressure
vv = visibility
rr = precipitation

Next stations